STARLINK-11365, 62886

Orbit data source: Space-Track

STARLINK-11365, 62886 is a payload satellite owned by SpaceX/Seattle (US) in LEO that was launched on Tue, 04 Feb 2025 UTC via an FALCON 9 launch vehicle from the Air Force Eastern Test Range (AFETR). Payload-class satellites include a variety of spacecraft equipped with specific instruments for various scientific and technological missions. These include communications satellites like Starlink; space stations such as the ISS; scientific satellites like the Hubble; Earth observation satellites from companies like Planet Labs, Umbra, and HawkEye 360; GPS; miniature CubeSats for education and research; and military/defense satellites.

Loading next visibility...
Identifier
62886, 2025-024H
Orbit
LEO
Last TLE update
14 hours ago
Origin
Manufacturer
SpaceX/Seattle
Mission
Operational Commercial Communications
Bus & Motor
STARLINK V2M, Unknown motor
Mass
730 kg wet, ~700 kg dry
Launch date (UTC)
2025-02-04 (5 months ago)
Launch vehicle
FALCON 9
Launch site
Air Force Eastern Test Range (AFETR)
Object type
Payload
Rocket body
Debris
Shape & HBR
Box + 2 Pan, 29 m
Radar Cross Section
36.964 m², Large (>1 m²)

Expand to show TLE details & history

TLE from 14 hours ago
0 STARLINK-11365
1 62886U 25024H   25183.25882421  .00144182  00000-0  11076-2 0  9991
2 62886  42.9997 250.6738 0003031 289.1570  70.8970 15.70840264 24084
Epoch: 2025-07-02T06:12Z
TLE epoch observation values (Epoch: 2025-07-02T06:12:42.411Z)
Latitude
0.00001°
Longitude
-123.0454°
Altitude
355.598 km
Speed
7.698 km/s
True Right ascension
16h 42m 41s
True Declination
0° 00' 00"
Sunlit
Object was in full shadow at epoch
Visualization orbit readout
Latitude
15.50883°
Longitude
-109.30939°
Altitude
355.096 km
Speed
7.699 km/s
Apparent Right ascension
18h 32m 49s
Apparent Declination
-11° 46' 10"
Sunlit
Object is in full shadow
Visualization observer readout
Local Sidereal Time
07:46:29
Azimuth
35.132° NE
Elevation
-57.488°
Doppler factor
1
Orbital elements
Apogee altitude
360.518 km
Perigee altitude
356.434 km
Semi-major axis
6,736.613 km
Eccentricity
0.0003
Inclination
42.9997°
RAAN
250.6738°
Arg. of periapsis
289.157°
True anomaly
Unknown
Mean anomaly
70.897°
Eccentric anomaly
Unknown
Mean motion
3.92537 °/min
Orbital period
91.71 mins
BSTAR
0.0011076
Loading maneuver chart data...
Loading SW <> Apogee altitude chart data...
Loading historical data...
Loading historical data...
Loading historical data...
Loading historical data...
Loading historical data...
Loading historical data...
Loading historical data...

STARLINK-11365 Visibility forecast

Observer location: undefined°, undefined°

Span
Click to sort rows by Start time (UTC) header in descending order
Start Az.
Max El. time (UTC)
Max El. Az.
Max El.
End time (UTC)
End Az.
4 mins2025-07-03 08:24:31.713Z236.271° WSW2025-07-03 08:25:31.713Z214.801° SW39.288°2025-07-03 08:28:31.713Z75.622° E
4 mins2025-07-03 10:00:31.713Z290.47° WNW2025-07-03 10:02:31.713Z19.17° NNE33.929°2025-07-03 10:04:31.713Z67.25° ENE
|